Theta_e
311 316 317 318 317 316 314 313 316 319 318 320 323 324 323 321 318 316 316 311 306 313 319 315 316 316 314 314 305 301 303 302 301 301 301 301 301 302 303 303 304 304 305 305 306 307 308 308 308 308 309 309 310 311 312 313 315 316 317 316 317 317 317 317 316 316 316 315 316 316 315 314 315 316 318 318 318 317 317 316 316 317 318 318 318 318
312 317 318 317 315 314 313 312 313 316 315 316 319 319 319 319 318 314 313 312 307 312 318 313 314 316 315 314 304 301 303 301 300 300 299 300 300 301 302 302 303 303 304 305 306 307 307 307 307 307 307 308 309 310 311 311 312 314 314 315 316 316 316 316 315 313 313 312 312 313 311 311 312 313 314 314 314 313 312 312 311 311 312 312 313 314
314 317 316 312 310 311 312 311 311 313 312 315 317 316 316 316 316 316 312 311 309 311 317 315 313 315 316 309 302 300 301 300 299 299 298 299 299 300 301 301 302 303 304 305 306 306 305 305 305 306 306 306 307 308 308 309 309 309 310 311 312 312 311 310 310 308 308 308 308 308 308 309 309 308 308 308 307 307 307 307 306 306 306 307 307 307
317 318 314 308 308 312 315 312 311 312 311 314 316 315 315 314 316 320 315 312 311 310 315 315 313 315 314 306 301 299 298 298 298 298 298 298 299 299 299 300 301 302 304 305 305 304 304 304 305 305 305 305 305 305 305 306 306 306 306 306 306 306 306 306 306 305 305 305 305 305 306 305 305 305 305 305 305 305 305 305 305 305 305 305 305 305
319 317 308 306 310 314 316 313 313 313 313 315 315 313 314 315 317 320 316 313 314 311 311 312 315 320 317 311 306 300 298 298 297 297 298 298 298 299 299 300 300 302 303 303 303 304 304 304 304 304 304 304 304 304 304 304 304 304 304 304 304 303 304 304 304 304 304 304 304 304 304 304 304 304 304 304 304 303 304 303 304 304 304 304 304 304
317 312 308 312 314 313 315 316 316 316 316 317 318 314 313 316 317 318 315 314 317 318 313 312 319 326 323 318 311 302 299 300 298 297 297 298 298 298 299 299 300 301 301 302 303 303 303 303 303 303 303 303 303 303 303 303 303 303 303 303 303 303 303 303 303 303 303 303 303 303 303 303 303 303 303 303 302 302 302 302 302 302 302 302 302 302
316 310 311 319 318 314 315 316 316 315 316 319 319 315 313 313 316 317 316 316 321 321 312 309 317 325 326 323 312 302 302 301 298 298 297 297 298 298 299 300 300 301 301 302 302 302 302 302 302 302 302 302 302 302 302 302 302 302 303 302 302 302 302 302 301 302 302 302 302 302 302 302 302 302 302 301 301 301 301 300 300 301 300 300 300 300
315 312 313 317 318 317 316 317 316 313 318 322 316 314 315 314 316 318 317 318 321 319 314 312 315 318 322 321 310 302 305 303 300 299 298 297 298 298 299 299 300 300 301 302 302 302 302 302 302 302 302 302 302 302 302 302 302 302 302 302 301 301 301 301 301 301 301 301 301 301 301 302 301 301 301 300 300 299 299 299 299 299 299 299 298 298
312 317 317 315 317 317 316 320 317 313 320 321 311 311 315 314 316 318 317 317 315 314 318 319 314 315 321 320 310 303 308 309 304 302 299 297 298 299 299 299 299 300 301 301 302 302 302 302 302 302 302 302 302 302 301 301 301 301 301 301 301 301 301 301 300 300 300 300 300 300 300 300 300 299 299 298 298 297 297 297 297 297 296 296 296 296
311 313 314 315 319 318 317 316 312 314 319 312 306 310 313 312 314 315 315 316 313 313 320 321 315 316 322 324 316 310 313 314 307 302 300 298 298 299 299 299 299 300 300 301 302 302 302 302 302 302 302 302 301 301 301 301 301 301 301 300 300 300 300 300 300 300 300 300 299 299 299 299 299 298 297 296 296 295 295 295 295 295 295 294 294 294
308 307 308 313 316 314 312 309 305 309 311 306 310 315 315 316 316 316 316 316 315 318 321 318 315 315 319 323 320 314 315 315 309 305 300 297 298 299 300 299 299 300 300 301 302 302 302 302 302 302 301 301 301 301 301 300 300 300 300 300 300 300 299 299 299 299 299 299 299 299 298 298 297 296 295 295 295 294 294 295 294 294 294 293 293 293
308 309 310 310 309 307 309 308 304 304 303 307 319 320 317 320 317 317 319 316 317 323 319 312 311 313 317 322 321 315 313 311 309 307 302 298 298 299 300 299 299 300 300 301 302 302 302 302 301 301 301 301 301 300 300 300 300 299 299 299 299 299 299 299 298 298 298 298 298 297 297 297 296 295 295 295 295 295 294 294 293 293 293 293 292 292
313 315 311 308 307 307 314 315 308 305 305 312 321 319 320 322 318 319 321 317 318 320 313 308 311 312 314 320 320 316 314 309 304 304 301 298 299 299 299 299 299 300 301 301 302 302 301 302 301 301 301 301 300 300 300 300 299 299 299 298 299 299 298 298 298 298 297 297 297 296 296 296 295 295 295 295 295 294 294 294 293 293 293 292 292 292
318 316 311 310 310 309 315 317 315 313 311 312 317 318 322 323 322 326 322 316 318 316 309 307 311 313 314 316 316 313 309 303 299 300 300 299 300 300 300 299 299 300 300 301 301 302 301 301 301 301 301 300 300 300 299 299 299 299 298 298 298 298 297 297 297 297 297 296 296 295 295 295 295 295 295 295 294 294 293 293 293 293 293 292 292 292
322 321 315 314 313 311 313 314 317 317 311 312 315 316 320 323 326 327 323 323 323 317 310 308 312 319 320 315 308 303 300 298 299 300 300 299 300 300 300 299 299 300 300 301 301 301 301 301 301 300 300 300 300 299 299 299 298 298 298 298 297 297 297 296 296 296 296 296 295 294 294 294 294 294 294 294 294 293 293 293 293 292 292 292 292 291
318 323 317 310 308 310 312 310 311 314 313 311 312 314 318 321 323 319 316 318 318 316 313 311 314 319 316 310 301 297 297 297 298 299 299 299 298 299 299 299 299 300 300 300 301 301 301 300 301 300 300 300 299 299 299 298 298 298 298 297 297 297 296 296 295 295 295 295 294 294 294 294 294 293 293 293 293 293 293 292 292 292 292 292 291 291
317 321 314 307 307 308 309 308 307 312 316 312 311 317 316 314 319 319 312 308 309 315 317 313 316 315 311 311 305 300 302 301 298 297 298 299 298 298 299 299 299 300 299 300 300 301 301 300 300 300 300 299 299 299 298 298 297 297 297 297 296 296 295 295 294 294 294 294 293 293 293 293 292 292 292 292 292 291 291 291 291 291 290 290 290 290
322 322 312 309 312 307 303 306 306 305 311 315 315 317 313 309 316 320 316 314 314 318 318 314 315 316 315 316 311 305 307 307 301 297 296 297 297 298 298 299 300 300 300 300 300 300 300 300 300 300 299 299 299 298 298 297 297 296 296 295 295 295 295 294 293 293 293 293 292 292 292 292 291 291 291 291 291 290 290 290 290 290 290 289 289 289
319 321 314 308 311 308 303 309 311 305 306 312 313 312 313 316 319 317 317 320 320 320 321 315 312 314 315 317 314 310 312 311 304 298 296 296 296 297 298 299 299 300 300 300 300 300 300 299 300 300 299 299 298 298 297 296 296 296 295 294 293 293 293 293 292 292 292 292 292 291 291 291 291 290 290 290 290 290 289 289 289 289 289 289 288 288
315 319 318 309 308 309 307 311 315 312 307 307 309 308 311 316 318 317 316 318 319 321 322 317 315 317 316 315 317 314 311 309 306 301 298 296 296 297 298 299 300 300 300 300 300 300 300 300 300 300 299 299 298 297 297 296 295 295 294 294 293 292 292 292 292 291 291 291 291 291 290 290 290 290 290 290 289 289 289 289 289 289 288 288 288 288
313 316 319 312 307 310 313 313 314 314 310 309 311 311 312 313 314 316 314 314 318 322 323 320 318 318 315 313 314 312 310 307 306 305 300 296 297 298 298 299 300 300 300 300 300 300 300 300 300 299 299 298 297 297 296 295 294 294 293 293 292 291 291 291 291 291 291 290 290 290 290 290 290 290 290 289 289 289 289 289 289 288 288 288 288 288
315 316 319 315 310 312 317 312 309 311 312 312 312 312 313 313 314 316 315 313 314 317 319 319 318 317 315 310 309 310 309 305 302 302 300 297 298 299 299 300 300 301 301 300 300 300 300 300 300 299 299 298 297 296 295 294 293 293 293 292 291 291 290 290 290 290 290 290 290 290 290 290 290 289 289 289 289 289 289 289 289 288 288 288 288 288
315 318 320 317 313 313 313 307 303 307 311 312 312 313 314 313 314 318 318 315 314 313 313 314 317 317 311 305 305 306 303 300 299 299 299 298 299 299 299 299 299 300 300 300 300 300 300 300 299 299 298 298 297 295 295 294 293 292 292 291 291 290 290 290 290 290 290 290 290 290 290 290 289 289 289 289 290 289 289 289 288 288 288 288 288 287
313 317 318 316 315 312 310 308 305 306 309 312 313 313 313 312 314 317 316 315 316 315 313 313 316 316 308 300 299 299 298 298 299 299 299 299 299 298 298 298 298 299 299 299 300 300 300 300 299 298 298 297 296 295 294 294 293 292 291 291 290 290 289 289 289 289 290 290 290 290 290 289 289 289 289 289 289 289 288 288 288 288 288 288 287 287
314 317 318 318 318 316 314 313 311 310 311 314 316 314 312 312 314 314 313 314 316 315 315 316 317 317 312 304 301 300 299 298 298 299 300 299 299 299 300 300 299 298 299 300 300 300 300 299 298 298 297 297 296 295 294 293 292 292 291 291 290 289 289 289 289 290 290 290 290 290 290 290 290 289 289 289 289 288 288 288 288 288 288 288 287 287
316 319 317 318 319 319 319 318 316 315 312 312 315 313 312 312 313 313 314 314 315 315 315 316 316 316 313 308 308 306 304 304 301 299 299 299 300 302 303 301 299 299 299 300 300 300 299 298 298 297 297 297 296 295 294 293 292 291 291 290 289 289 289 289 289 290 290 290 290 290 290 290 289 289 289 289 288 288 288 288 288 288 288 288 287 287
318 319 316 317 319 319 321 320 317 318 316 314 314 314 312 311 311 313 315 315 315 315 315 314 315 316 314 311 311 310 309 311 306 298 298 300 301 303 302 301 299 299 299 299 300 299 299 298 298 298 298 297 296 295 294 293 293 291 290 289 289 289 289 289 290 290 290 290 290 290 290 289 289 289 289 289 288 288 288 288 288 288 288 287 287 287
319 318 315 317 317 318 322 319 314 316 318 316 315 314 313 311 310 312 314 314 316 316 316 315 315 316 316 313 313 313 312 312 305 298 299 302 302 302 301 300 299 299 298 298 298 299 299 299 299 298 298 297 296 295 294 293 293 291 290 289 289 289 289 289 290 290 290 290 290 290 289 289 289 289 289 288 288 288 288 288 288 288 287 287 287 287
318 318 316 316 315 316 319 316 312 315 317 316 316 315 313 310 310 311 311 313 316 315 315 316 315 315 315 313 315 314 310 308 305 302 303 303 302 301 300 299 299 299 298 298 298 299 300 300 300 299 298 297 296 294 293 293 293 291 289 289 288 289 289 290 290 290 290 290 290 290 289 289 289 289 289 288 288 288 288 287 287 287 287 287 287 286
315 318 316 315 316 316 315 314 313 314 315 315 315 315 314 311 310 311 311 311 313 314 314 314 314 313 313 314 313 309 305 304 303 303 302 301 301 301 300 300 300 299 298 298 298 299 300 300 300 299 298 297 296 295 294 294 294 292 290 289 289 289 289 290 290 290 290 290 290 289 289 289 289 289 288 288 288 288 287 287 287 287 287 287 286 286
313 316 313 313 315 315 312 311 312 312 312 313 314 313 313 311 310 311 311 311 311 311 312 311 311 311 310 309 308 305 303 304 303 301 301 301 301 301 301 301 301 300 300 299 299 299 300 300 299 298 298 298 297 296 295 295 294 293 291 289 289 289 289 290 290 290 290 290 289 289 289 289 289 288 288 288 288 288 287 287 287 287 287 286 286 286
311 312 311 312 316 315 310 309 310 308 308 310 312 311 310 310 312 311 309 310 311 311 311 310 310 311 308 305 303 302 302 301 302 302 302 302 302 302 301 302 302 302 301 301 300 299 299 299 299 299 299 299 299 298 297 296 295 294 292 290 289 289 290 290 290 290 290 290 289 290 289 289 288 288 288 288 288 287 287 287 287 287 286 286 286 285
309 310 311 312 316 314 306 306 308 308 310 312 312 312 311 310 309 309 307 308 309 310 311 311 310 311 309 305 304 304 301 299 301 303 303 303 303 303 303 303 303 303 303 302 301 300 300 300 300 300 300 300 299 299 298 297 295 295 293 291 289 289 290 290 290 290 290 290 290 290 289 289 288 288 288 288 287 287 287 287 287 286 286 286 286 285
307 310 312 312 315 312 303 303 308 310 313 313 308 308 312 311 309 309 308 307 307 307 309 309 309 311 308 305 306 307 303 301 302 303 303 303 303 303 303 302 302 302 302 301 301 300 300 300 299 299 299 299 299 298 298 297 295 295 293 291 289 289 290 291 291 290 290 290 290 289 289 288 288 288 288 288 287 287 287 287 287 286 286 286 285 285
308 309 310 311 312 308 302 304 311 313 313 307 299 299 304 307 309 309 308 307 306 306 307 307 308 308 304 302 303 303 302 302 301 301 301 301 301 301 300 299 299 299 299 299 299 299 298 298 298 298 298 298 298 298 298 297 295 294 293 291 289 289 290 291 291 291 290 290 290 289 288 288 288 288 288 288 287 287 287 287 287 286 286 286 285 284
309 309 309 309 307 304 304 307 312 312 309 303 298 296 298 303 306 306 306 307 305 304 304 305 306 304 299 298 300 300 299 299 298 298 299 299 298 298 298 298 298 298 298 298 297 297 298 298 298 298 297 297 296 296 297 297 296 295 293 291 289 289 290 291 291 291 291 290 289 289 288 288 288 288 288 287 287 287 287 287 286 286 286 285 285 284
308 309 309 309 307 306 306 307 309 310 308 307 304 300 298 302 305 306 307 307 303 300 301 303 305 304 299 298 298 297 296 296 296 297 297 297 297 297 297 297 297 297 297 297 297 297 297 297 296 296 295 295 295 295 296 297 296 295 293 291 289 289 290 291 291 291 291 290 289 289 288 288 288 288 288 287 287 287 287 287 286 286 286 285 284 283
305 308 309 311 310 308 307 308 308 309 310 311 308 301 296 298 301 302 305 307 302 297 297 301 305 304 299 295 294 294 295 296 298 297 296 296 297 296 297 297 297 297 297 296 296 295 295 295 294 294 294 294 295 295 296 296 296 294 292 290 289 289 290 291 291 291 291 290 289 288 288 288 288 288 287 287 287 287 287 287 286 286 285 285 284 283
302 304 307 310 309 307 308 310 310 309 310 311 306 298 293 295 298 300 303 307 302 294 294 299 301 300 296 293 293 294 296 299 300 297 295 296 296 296 296 296 296 295 295 294 293 293 293 293 293 293 294 294 294 294 295 295 294 293 291 290 290 290 291 291 292 291 291 290 289 288 288 288 288 288 287 287 287 287 286 286 286 285 285 284 283 282
302 303 305 308 309 307 308 309 309 309 308 305 300 295 293 295 299 302 306 306 299 292 293 297 297 296 295 293 293 295 297 299 299 297 295 295 295 295 294 294 293 293 292 292 292 292 292 292 292 293 293 293 293 293 293 293 293 292 291 291 291 291 291 291 291 291 290 289 289 288 288 288 288 287 287 287 287 286 286 286 286 285 285 284 283 282
302 302 303 306 307 307 308 309 308 308 305 299 295 293 293 296 300 304 307 304 296 292 294 297 296 295 295 293 293 296 297 297 296 295 294 294 294 294 293 292 292 292 292 292 292 291 291 291 292 292 293 293 292 292 292 292 291 291 291 291 291 291 290 290 290 290 289 289 288 288 288 288 288 287 287 287 286 286 286 286 285 285 284 283 282 281
302 302 303 304 305 306 307 307 307 308 303 296 293 292 293 298 304 304 303 299 295 295 296 296 295 295 295 294 294 296 296 295 295 295 294 294 293 293 292 292 292 292 292 292 292 291 291 291 291 292 292 292 292 292 291 291 291 291 290 290 290 290 290 290 290 289 289 289 288 288 288 288 287 287 287 286 286 286 286 286 285 285 284 283 282 281
303 304 303 304 305 305 305 305 307 308 301 294 293 294 295 300 304 301 296 294 295 296 296 295 295 295 295 295 295 295 295 295 294 294 294 294 293 293 292 292 292 292 292 292 292 292 291 291 291 292 292 292 292 291 291 291 291 290 290 290 290 290 290 289 289 289 289 288 288 288 288 287 287 287 286 286 286 286 286 285 285 284 283 282 281 281
304 305 305 304 305 305 306 306 305 303 297 294 296 298 297 298 299 297 295 294 294 295 296 295 295 295 295 295 294 294 294 294 294 294 294 294 293 292 292 292 292 292 292 292 292 292 292 291 291 291 292 292 292 291 291 291 291 290 290 290 290 290 289 289 289 289 288 288 288 288 287 287 287 286 286 285 286 286 286 285 285 284 283 281 281 281
303 302 302 304 303 303 304 304 299 295 293 294 297 299 298 298 297 296 296 296 294 295 295 295 295 295 294 294 294 294 294 294 294 294 293 293 293 292 292 292 292 292 292 292 292 292 291 291 291 291 291 292 292 291 291 291 290 290 290 290 290 290 289 289 289 288 288 288 288 288 287 287 286 286 285 285 285 286 285 285 284 283 282 281 280 280
295 293 296 300 301 298 297 296 294 293 293 294 296 298 298 298 297 296 296 296 295 295 295 294 295 295 294 294 294 294 294 293 293 293 293 293 293 292 292 292 292 292 292 292 292 292 291 292 291 291 291 291 291 291 291 291 291 291 290 290 290 290 289 289 289 288 288 288 288 288 287 287 286 286 285 285 285 285 285 285 284 283 282 281 280 280
293 291 294 297 299 299 297 295 293 293 293 294 296 297 297 296 297 296 296 296 295 295 295 294 294 294 294 294 294 293 293 293 293 293 293 292 292 292 292 292 292 292 292 292 292 292 291 291 291 291 291 291 291 291 291 291 291 290 290 290 290 290 289 289 288 288 288 288 288 288 287 287 286 285 285 285 285 285 285 285 284 283 281 280 280 280
295 293 295 296 296 296 295 292 291 292 293 294 296 297 296 296 296 295 295 295 295 295 295 294 294 294 294 293 293 293 293 293 293 293 293 292 292 292 292 292 292 292 292 292 292 292 291 291 291 291 291 291 291 291 291 291 291 290 290 290 290 290 289 289 288 288 288 288 288 288 287 287 286 285 285 285 285 285 285 284 283 282 281 280 279 279
295 294 295 295 294 293 292 290 289 291 293 293 295 296 296 296 295 295 295 295 295 294 295 294 294 294 294 293 293 293 293 293 293 293 292 292 292 292 292 292 292 292 292 292 292 291 291 291 291 291 291 291 291 291 290 290 290 290 290 290 290 290 289 289 288 288 288 288 288 288 288 287 286 285 285 285 285 285 285 284 283 282 281 280 279 279
293 295 295 294 294 294 293 291 291 293 295 294 294 295 295 295 295 295 295 295 294 294 294 294 294 294 293 293 293 292 292 293 293 293 292 292 292 292 292 291 291 291 291 291 291 291 291 291 291 291 291 291 291 290 290 290 290 290 290 290 289 289 289 289 288 288 288 288 288 288 287 287 286 285 285 285 285 285 285 284 282 281 280 279 279 278
293 295 295 294 295 296 294 293 293 294 295 294 294 294 294 294 294 294 294 294 294 294 294 294 294 293 293 293 293 292 292 292 292 292 292 292 292 292 291 291 291 291 291 291 291 291 291 291 291 291 291 291 291 291 291 291 291 291 290 289 289 289 288 288 288 288 288 288 288 288 287 286 285 285 285 285 285 285 284 283 282 280 280 279 279 278
Wind_Speed
5 3 3 6 6 8 10 9 7 4 6 6 5 4 4 4 4 4 3 4 1 1 5 4 5 9 7 2 3 2 3 6 6 5 5 4 4 4 5 5 6 8 9 9 8 7 7 7 7 8 9 9 9 10 11 11 12 13 14 14 15 14 11 9 10 10 9 8 8 7 6 6 8 7 6 5 3 2 1 2 3 4 6 7 8 9
4 5 8 8 7 8 8 7 5 4 5 5 4 3 3 4 5 4 1 3 1 2 3 1 2 9 7 2 4 2 2 4 3 3 4 5 6 6 7 8 9 10 11 10 10 11 11 12 12 13 14 14 14 15 15 14 15 15 14 14 13 11 9 8 9 9 11 12 10 10 10 10 10 9 6 5 5 4 4 4 4 3 3 4 5 6
2 6 10 6 7 6 3 5 6 4 3 3 3 3 3 3 3 4 2 3 2 2 3 1 1 8 6 1 3 3 2 3 2 4 5 6 7 8 8 9 11 12 13 14 15 16 17 17 18 19 20 20 21 21 20 20 20 19 18 17 16 14 13 14 14 15 17 18 17 16 16 15 15 15 12 11 12 10 9 9 9 8 8 7 6 6
3 7 8 8 11 8 4 4 6 4 2 3 3 3 4 2 1 3 3 3 2 0 2 0 2 6 2 1 2 2 4 5 5 5 6 7 7 8 9 10 12 15 17 19 20 21 21 22 23 24 24 25 25 25 25 24 24 23 23 22 21 20 20 20 19 20 21 21 20 20 19 18 18 18 16 15 15 13 12 12 12 11 11 11 10 10
5 5 3 9 8 7 5 4 6 5 2 3 5 6 5 3 5 6 2 2 2 3 0 2 3 5 2 3 2 1 4 5 5 6 7 7 9 10 10 12 14 17 20 22 23 24 25 25 25 26 26 26 26 26 26 25 25 25 24 23 23 22 22 20 20 20 19 19 19 19 18 18 18 18 15 14 15 13 12 12 13 13 13 12 12 12
7 4 6 8 4 5 7 3 5 7 3 3 5 10 10 7 7 5 1 3 2 3 2 2 2 5 2 2 3 2 2 2 3 5 7 8 10 11 12 15 17 19 22 23 25 26 26 26 26 25 25 24 24 25 25 24 23 23 22 22 21 21 20 19 19 18 16 16 17 16 16 15 14 14 14 14 15 14 13 13 13 13 13 12 12 12
3 2 5 6 5 6 5 4 6 7 5 2 4 8 10 7 5 4 3 2 1 3 2 2 3 4 5 4 2 2 2 2 2 3 6 9 11 13 15 17 19 21 24 25 27 27 26 26 25 24 23 23 23 23 22 22 21 20 20 20 19 19 19 18 17 16 14 14 14 13 13 12 10 11 14 15 14 13 13 13 12 12 12 12 12 12
3 3 3 5 6 5 5 4 6 7 7 3 3 5 7 7 7 6 6 4 3 2 2 2 2 2 4 4 2 1 2 2 3 3 5 10 13 15 17 18 20 22 24 26 27 27 26 25 24 23 22 22 22 21 20 19 19 18 18 17 17 17 17 16 16 14 12 11 10 10 10 11 11 12 15 14 13 13 12 10 11 11 11 12 12 12
3 5 6 7 5 4 5 4 8 11 5 4 2 6 6 6 6 5 5 3 1 1 3 3 1 1 4 4 2 1 2 6 6 6 8 13 16 17 19 20 21 23 25 27 27 26 25 24 23 22 21 21 21 20 18 17 16 15 15 14 14 14 14 14 12 10 10 9 8 9 9 11 14 14 14 13 12 13 11 9 11 11 11 11 11 11
1 3 6 8 5 5 4 1 7 10 4 4 6 7 6 5 5 4 4 3 2 0 5 5 4 3 4 4 2 1 3 7 6 6 9 16 19 20 22 23 23 24 25 27 27 26 25 23 22 21 21 20 19 18 16 15 14 13 13 12 11 12 12 12 10 8 9 9 8 9 9 11 13 14 13 11 11 11 9 9 10 10 11 11 11 11
0 1 2 4 4 6 5 3 2 4 5 9 7 6 6 5 4 3 2 3 2 2 6 6 5 4 3 4 4 4 4 5 6 5 7 14 20 24 25 25 25 25 27 27 27 26 24 23 22 21 20 19 18 17 15 14 13 12 11 9 9 11 10 9 9 7 7 8 7 8 9 10 12 12 10 9 9 10 8 8 10 10 10 10 10 11
2 1 2 3 5 7 8 5 5 4 6 7 4 4 4 3 3 3 3 3 1 5 5 3 2 3 4 4 4 5 4 4 7 8 10 15 22 28 28 26 26 26 27 28 27 26 25 24 22 21 20 18 17 16 14 13 12 10 9 6 6 9 9 8 7 6 6 6 6 7 8 9 10 10 8 6 7 8 8 9 10 10 10 10 10 11
1 3 2 2 5 7 6 5 4 4 2 4 4 6 4 2 2 2 3 1 3 5 3 2 1 3 5 6 7 6 5 5 6 8 15 23 28 30 30 28 27 28 28 29 28 27 26 24 23 21 20 18 17 15 13 12 10 9 8 6 4 7 8 7 6 5 5 5 6 7 6 7 8 7 6 6 6 7 8 9 9 9 10 10 11 12
2 4 2 3 3 8 9 6 3 1 2 4 5 6 4 2 1 3 3 2 4 4 2 2 1 2 4 5 6 6 4 5 5 5 14 27 32 33 32 30 29 29 29 29 29 27 26 24 23 21 19 18 16 15 13 12 10 8 7 6 4 5 7 7 6 5 4 5 5 6 6 6 6 6 6 6 7 7 8 8 9 9 10 11 11 12
3 4 5 5 3 10 11 6 6 6 5 4 3 5 4 4 4 4 4 3 4 2 2 3 2 4 4 2 3 4 3 3 5 5 10 20 27 30 31 31 30 31 31 30 30 28 26 24 23 21 20 18 16 15 13 12 10 8 7 6 5 5 6 6 6 5 4 4 5 5 5 6 5 5 6 6 7 8 8 9 10 11 11 12 13 13
3 5 5 1 2 10 10 5 7 8 4 2 2 4 3 4 4 2 3 4 2 1 2 2 3 4 4 2 2 3 3 3 5 6 9 16 22 26 30 32 33 33 33 32 31 29 27 25 23 22 20 18 17 15 14 12 11 9 8 7 6 5 6 6 6 5 4 3 4 4 3 3 4 4 4 5 6 6 7 8 9 10 11 12 13 14
2 4 4 3 2 3 5 5 4 3 3 2 2 4 4 3 6 4 2 1 3 2 4 3 3 3 1 2 2 2 2 3 3 4 9 16 21 26 31 35 36 36 34 33 32 30 28 26 25 23 21 19 17 15 14 13 11 10 9 8 7 7 7 7 6 5 4 3 3 2 2 2 2 3 3 4 5 5 6 7 8 9 9 10 12 13
4 2 3 1 1 1 2 6 6 4 4 5 4 5 3 2 4 3 2 2 2 3 4 2 4 3 2 2 2 2 3 6 4 4 7 14 21 27 33 38 38 37 35 33 32 30 29 27 25 23 21 19 17 16 15 14 13 12 11 9 8 8 8 8 7 6 4 3 2 1 1 0 1 2 3 4 4 5 6 7 8 9 10 11 12 13
4 1 4 1 2 1 2 5 5 4 3 4 4 3 4 3 1 2 2 2 2 3 4 2 2 3 4 5 3 5 9 9 6 5 6 13 23 30 34 38 38 37 36 35 34 33 31 29 26 24 22 20 19 18 17 16 15 14 13 11 10 10 9 8 7 6 5 4 3 3 2 2 2 2 3 4 5 6 7 9 10 11 11 12 12 13
4 3 3 1 1 1 1 2 4 2 1 3 2 2 2 2 4 3 2 2 3 3 3 3 2 3 5 6 9 13 14 11 9 7 9 17 27 33 36 40 42 41 40 39 37 35 32 29 26 24 23 21 21 20 18 18 16 15 14 13 12 11 10 9 8 7 6 6 5 5 4 3 3 3 4 5 6 7 8 10 11 12 13 13 13 13
3 3 3 1 2 1 2 4 7 8 5 3 3 4 2 1 2 1 1 2 3 3 2 3 4 4 4 4 9 11 10 10 12 11 12 21 30 34 38 42 44 45 44 41 39 36 32 30 27 26 25 23 22 21 20 19 18 17 16 14 13 12 11 11 10 9 9 8 7 6 4 3 4 4 5 6 7 9 10 12 13 14 15 15 15 15
3 3 4 2 1 4 4 4 3 6 7 6 6 7 7 5 4 2 4 1 2 2 3 2 5 5 3 2 4 5 4 7 13 14 14 23 32 36 38 42 45 47 46 43 39 36 33 31 29 28 27 25 24 23 22 20 20 19 17 16 15 14 13 12 12 11 10 9 7 6 4 4 4 5 6 8 10 12 14 15 16 16 17 17 17 17
4 3 4 3 4 4 4 3 1 2 3 4 4 5 6 5 5 5 7 3 2 1 2 2 4 5 2 2 3 4 3 5 12 16 17 21 29 34 36 38 41 44 44 41 38 36 34 32 31 29 28 27 26 24 23 22 21 20 19 18 17 16 15 14 13 12 11 9 7 5 4 4 4 6 8 11 13 15 16 17 17 17 17 18 18 19
3 3 4 1 2 2 3 2 2 3 2 2 3 3 5 5 5 4 4 3 3 4 3 2 5 4 2 2 2 4 5 5 10 17 19 19 23 28 32 34 37 40 40 39 38 36 34 33 32 32 31 29 27 25 24 23 22 21 20 20 18 17 16 15 14 13 11 9 7 5 4 4 6 8 11 13 14 16 16 17 17 17 18 19 19 20
7 3 5 4 0 2 2 2 1 1 2 4 3 3 6 6 5 2 1 3 2 6 7 4 8 5 1 2 3 2 2 4 8 14 18 18 19 24 29 33 36 38 39 40 39 38 37 37 36 35 32 30 28 26 25 24 24 23 22 21 19 18 17 16 15 14 11 9 7 6 6 7 9 11 13 14 15 16 17 18 18 19 19 20 21 21
9 3 6 8 7 8 6 5 5 4 2 2 2 4 7 9 9 5 2 3 5 5 8 7 9 4 1 3 4 3 1 3 8 11 15 18 19 21 26 31 35 38 42 44 43 41 40 39 37 35 33 32 29 27 26 25 25 24 23 21 20 19 18 18 16 14 11 9 8 7 8 9 11 12 14 16 17 17 18 19 20 20 21 22 23 23
4 2 8 11 10 10 7 4 4 6 6 5 6 8 9 10 12 7 3 5 6 3 5 9 6 3 5 5 5 5 3 4 6 8 14 19 21 22 25 28 33 37 41 43 44 43 41 38 37 35 34 33 31 29 27 26 25 25 24 23 21 21 20 19 16 14 12 10 9 9 9 10 12 14 15 17 18 19 20 20 21 22 23 24 24 24
2 3 9 10 9 5 4 3 5 7 8 9 9 11 11 9 11 10 9 8 6 5 9 8 6 3 11 6 6 7 6 5 6 10 17 21 22 23 23 25 30 34 38 40 42 42 41 40 38 37 37 35 32 30 28 26 26 26 25 24 23 23 22 20 17 14 12 11 10 10 11 12 13 15 16 17 18 19 20 21 22 23 24 25 25 25
2 4 4 4 6 3 4 4 3 5 5 6 8 11 11 11 12 14 15 11 8 8 13 5 7 9 12 5 7 10 9 9 12 15 18 18 19 22 22 24 28 32 36 39 42 43 42 41 40 39 39 36 33 32 30 27 27 27 27 26 26 25 23 20 17 15 13 11 11 11 12 13 15 16 16 16 18 19 21 22 23 24 24 25 25 25
2 3 2 4 6 4 4 4 3 5 3 3 6 11 11 11 13 15 16 13 9 11 10 1 5 12 8 5 9 10 9 10 11 13 13 14 16 19 20 23 26 29 34 38 41 42 42 42 41 40 37 35 34 33 31 29 28 29 29 29 28 27 24 21 18 15 13 12 11 12 13 15 16 16 15 16 17 19 21 22 23 24 25 25 25 25
3 3 3 5 4 4 4 4 3 5 5 5 11 15 9 7 9 13 13 7 5 9 8 4 8 11 6 6 8 7 7 8 9 11 11 12 14 16 18 22 24 26 30 34 37 39 41 41 39 35 33 33 34 33 32 30 29 29 30 30 30 28 24 21 18 15 14 13 13 14 15 16 16 15 16 17 18 20 22 23 24 25 25 25 26 26
3 2 2 3 4 3 3 5 5 3 2 5 17 17 9 7 8 9 7 6 8 10 9 8 10 8 5 7 7 6 8 10 11 13 12 13 15 16 18 19 20 21 23 26 31 35 37 37 33 30 30 31 33 33 33 32 30 30 31 31 30 28 24 21 18 16 15 14 15 16 16 16 16 16 17 18 20 21 23 24 25 25 26 26 26 26
3 3 2 3 4 1 2 4 6 5 2 8 15 11 12 12 8 4 4 8 11 10 8 8 9 5 4 7 7 6 7 10 13 15 15 16 17 18 19 17 15 15 15 16 20 23 25 26 24 23 24 24 26 28 29 31 31 30 31 31 30 28 24 21 18 17 16 16 17 17 16 16 16 17 18 19 21 22 24 25 26 26 26 26 26 26
4 4 3 3 3 1 2 4 6 3 5 8 5 2 10 15 13 9 9 10 11 9 6 3 3 4 6 8 9 9 10 12 15 17 16 16 16 17 18 17 15 15 15 15 15 16 17 17 17 18 19 20 21 22 24 28 30 29 29 30 29 28 25 22 19 19 19 19 18 18 17 17 17 18 20 21 22 23 25 26 26 26 27 27 26 27
6 5 2 1 2 1 3 5 4 6 7 4 4 3 3 7 12 12 10 9 12 12 8 3 3 6 8 11 12 12 12 12 13 14 13 14 16 16 16 16 16 16 16 16 16 16 16 16 18 20 21 21 21 20 22 25 27 28 29 29 29 28 25 23 21 21 21 21 19 18 18 18 19 20 22 23 23 24 25 26 27 27 28 27 27 27
6 5 2 2 2 2 2 5 6 4 3 2 4 4 2 4 5 5 5 8 11 11 9 7 7 8 10 13 12 10 10 9 10 13 14 15 16 16 15 16 15 14 12 13 14 15 16 17 19 19 19 19 19 20 21 23 25 28 28 29 30 29 27 24 24 24 24 22 19 19 19 20 20 22 24 24 24 25 26 27 28 28 29 28 28 28
5 5 2 2 3 3 3 5 3 5 5 4 3 2 4 5 6 6 4 8 7 8 9 8 7 10 12 11 9 7 5 3 7 14 17 16 16 15 14 13 12 11 11 11 12 14 15 16 16 16 17 18 18 20 21 21 24 26 27 29 30 29 28 27 27 27 25 22 20 20 21 21 23 24 25 25 25 26 26 27 28 29 29 29 28 28
2 3 4 5 3 3 3 3 2 3 7 6 4 3 4 6 7 7 2 5 3 9 17 14 9 12 10 5 6 7 3 2 4 10 10 10 12 12 11 11 10 10 11 12 12 13 13 14 16 17 18 19 18 19 19 20 22 25 26 28 29 29 29 29 29 28 25 22 21 22 23 24 25 26 26 26 26 26 27 27 28 29 30 29 29 28
1 1 3 4 2 3 4 5 5 6 6 4 4 3 4 10 11 9 3 5 4 12 21 17 11 12 10 9 12 10 6 2 5 9 7 5 7 9 9 9 10 10 10 10 10 11 12 13 15 16 18 19 19 19 19 20 21 23 25 26 28 29 29 29 29 28 25 23 23 24 25 26 26 27 27 27 27 26 27 28 29 30 30 29 29 29
2 1 1 4 4 5 6 5 4 4 4 3 5 5 7 12 12 8 2 6 5 11 18 16 14 15 13 13 15 10 6 7 7 7 5 6 7 8 9 9 9 8 8 8 9 11 12 13 15 16 17 17 18 18 19 19 20 21 22 23 25 27 27 26 26 25 24 24 25 26 27 28 28 28 28 28 27 27 27 28 29 30 30 29 29 29
1 1 2 4 5 6 7 5 3 3 3 3 5 10 14 11 7 2 4 5 7 13 17 17 17 17 14 18 19 12 11 14 10 3 4 8 9 9 9 7 7 7 8 9 10 11 12 13 14 15 16 16 17 19 19 19 19 19 20 22 24 25 24 23 23 24 25 26 26 27 29 29 29 29 29 28 28 27 27 28 29 30 30 29 29 29
2 1 1 3 3 4 5 3 3 3 4 7 7 10 13 7 1 4 5 9 13 15 16 18 17 15 15 19 19 15 13 14 13 7 7 9 9 9 8 6 6 7 9 10 11 11 11 12 14 15 17 17 19 19 20 20 20 20 21 22 23 23 23 23 24 25 26 27 27 28 29 30 30 30 29 29 28 27 27 28 29 30 30 29 30 29
4 3 2 3 3 2 1 3 4 4 6 17 14 5 4 3 4 8 11 11 12 13 16 19 17 15 16 17 17 16 14 12 12 11 10 11 11 10 9 8 8 9 11 12 13 13 12 13 14 16 18 19 21 21 21 21 21 22 22 22 21 22 23 24 26 26 27 27 28 28 29 30 31 30 30 29 28 27 27 28 29 29 29 29 30 29
3 4 4 4 3 4 3 6 4 2 10 26 19 5 8 10 7 11 13 10 11 14 17 19 18 16 17 16 16 17 16 15 14 12 12 13 14 13 12 11 10 11 12 14 15 15 15 15 15 15 18 21 23 24 24 24 24 24 23 20 20 22 25 26 27 27 27 27 27 28 29 30 31 30 29 28 28 27 27 28 28 29 29 29 29 29
2 3 4 3 3 4 4 4 2 2 14 29 18 5 12 17 10 8 10 10 14 17 17 18 17 16 15 15 15 16 17 16 15 14 14 14 14 15 15 14 13 13 13 14 16 16 17 17 17 17 18 21 24 27 27 27 26 26 24 22 21 24 27 28 28 27 26 26 26 27 29 30 30 30 29 28 28 28 27 28 29 29 28 28 29 29
0 2 3 1 2 3 1 2 3 3 11 24 19 6 9 15 14 12 11 10 13 15 15 15 14 13 14 15 16 17 17 16 16 17 16 15 14 15 16 16 16 15 15 16 17 17 18 19 19 19 20 22 25 28 29 30 30 29 27 25 25 27 28 29 29 27 26 25 26 27 29 30 30 29 28 28 28 28 28 28 29 29 28 28 28 28
1 3 3 1 1 3 1 2 4 2 7 20 21 13 10 12 15 16 15 13 13 13 13 13 12 12 13 15 16 17 17 18 19 19 18 16 15 15 15 16 17 17 17 18 18 18 19 21 22 22 22 23 25 28 30 32 32 32 30 29 29 30 31 31 30 28 26 26 26 27 29 29 29 29 29 29 29 28 28 29 29 29 29 28 28 27
2 5 4 2 2 2 1 2 1 0 5 15 19 18 16 15 15 16 15 16 15 15 14 14 14 15 16 15 15 16 17 19 21 21 20 18 17 16 16 17 17 18 19 19 19 20 22 23 23 23 24 25 25 27 30 32 33 34 34 34 33 33 34 34 32 30 28 26 27 28 28 29 29 29 29 29 29 29 29 29 29 29 29 28 27 27
4 5 4 2 2 1 0 1 1 2 2 9 17 20 19 17 16 15 15 16 17 17 17 17 17 18 18 17 17 17 18 19 21 22 21 20 18 18 18 18 19 20 20 20 20 22 24 25 25 25 25 26 25 27 29 31 32 34 36 37 37 37 37 36 34 32 29 27 27 28 29 29 30 29 29 29 29 29 29 29 29 29 29 27 26 26
5 4 2 2 2 2 2 6 8 3 2 9 17 20 18 16 16 17 17 17 18 18 19 19 19 18 19 19 19 19 20 20 20 21 22 21 21 21 21 20 21 22 22 22 23 24 26 27 27 27 27 27 26 26 28 28 30 32 35 37 39 40 39 38 36 34 31 28 27 28 29 30 30 29 29 30 29 29 29 29 29 29 29 27 25 25
9 7 5 5 3 4 7 14 17 11 6 10 14 14 13 14 16 18 18 18 19 19 19 19 19 19 19 20 20 21 22 21 19 19 21 23 24 24 24 23 23 24 25 24 25 26 27 28 28 28 29 28 26 26 27 27 28 30 32 35 38 40 40 39 37 36 33 29 28 29 30 30 29 29 30 30 30 29 29 29 29 28 28 28 26 24
Wind_Direction
147 141 193 217 201 194 202 195 189 150 117 127 129 134 184 218 258 237 233 294 3 131 272 256 256 274 270 293 349 29 103 98 97 98 97 105 113 117 125 130 129 126 120 114 113 112 106 105 105 104 104 106 112 115 118 119 114 109 108 105 104 102 101 103 103 107 116 114 111 114 116 119 119 118 109 97 81 50 17 317 304 287 283 290 297 299
127 181 228 224 192 188 197 183 154 117 113 111 128 174 226 222 249 254 230 318 350 172 268 347 303 274 265 288 341 348 88 69 74 110 122 136 136 134 137 135 132 125 121 121 121 121 119 118 116 112 112 113 113 115 115 113 111 111 112 109 108 110 112 110 104 104 106 105 105 106 100 99 106 111 106 97 88 68 45 32 20 7 352 327 318 313
129 224 241 205 143 132 110 143 161 161 138 109 118 168 244 228 252 288 303 342 14 179 258 12 264 266 265 331 3 27 81 86 128 164 155 151 145 143 140 135 134 129 127 129 127 125 123 119 117 115 113 112 109 109 108 106 105 106 107 108 109 112 110 106 103 99 96 95 93 92 90 92 97 96 91 87 83 75 68 64 61 56 50 41 30 20
177 248 244 169 140 126 87 114 141 137 150 158 148 174 236 218 191 275 289 330 359 41 256 201 274 269 252 15 3 65 119 116 125 153 152 153 149 142 141 136 135 134 132 132 129 126 123 119 117 114 111 108 106 105 105 104 102 101 101 101 102 101 98 96 94 90 88 88 88 88 89 89 87 85 85 84 84 81 76 72 67 63 56 49 44 40
218 254 180 137 140 147 132 119 137 151 216 230 201 204 223 202 207 233 265 326 344 3 6 148 310 292 213 206 240 137 143 128 127 145 144 151 153 146 145 143 138 135 133 131 129 126 122 119 115 112 109 107 106 105 103 101 99 98 96 94 92 90 88 87 85 84 83 85 86 85 85 85 84 88 92 89 86 82 76 72 66 61 56 49 45 43
251 234 137 116 109 145 145 163 182 171 191 273 227 212 216 208 210 226 347 23 9 333 304 145 261 288 301 239 212 174 179 161 151 157 152 156 158 157 154 149 144 139 135 132 129 126 123 119 116 112 111 109 106 103 101 99 98 96 94 92 91 89 87 84 82 82 82 82 85 85 87 90 92 97 97 86 80 76 70 68 65 62 59 52 48 45
245 189 136 127 127 141 154 213 221 166 141 278 247 208 207 196 181 176 143 111 165 254 299 85 191 258 322 308 230 170 196 208 211 188 174 172 168 167 163 156 150 144 139 135 131 129 125 121 119 116 113 110 105 102 99 97 96 95 93 92 91 89 88 86 84 85 84 84 88 91 93 97 92 88 88 81 77 73 69 68 65 63 60 55 50 48
174 133 110 127 127 138 170 223 220 159 140 232 248 163 168 173 178 177 160 171 225 248 322 26 148 228 298 284 270 162 202 246 236 228 208 190 181 175 168 160 155 149 143 138 134 131 129 125 123 119 115 112 107 103 100 99 97 95 94 93 92 90 89 89 91 95 95 89 89 87 87 92 87 80 84 84 80 76 72 69 65 60 55 51 46 44
152 164 180 158 138 175 197 216 187 159 154 241 190 116 134 154 160 149 142 177 273 11 286 291 136 213 265 265 315 68 242 257 222 211 214 199 188 179 173 166 160 154 146 141 138 135 133 129 126 123 119 115 111 108 106 105 102 100 99 98 98 97 97 98 99 102 99 88 81 76 71 77 81 80 83 85 83 80 74 65 64 58 51 48 43 40
127 187 190 156 154 200 202 234 180 169 184 183 132 95 84 79 84 96 115 126 63 76 240 239 180 200 268 277 292 79 254 251 212 199 207 197 190 182 176 172 166 159 151 146 143 140 137 134 131 127 124 120 118 117 115 113 110 106 103 101 102 102 100 101 101 95 90 82 71 67 64 68 78 82 86 89 85 81 74 63 61 56 49 45 39 35
32 97 179 159 172 174 136 70 106 139 140 138 117 77 64 44 48 58 62 90 72 273 247 234 198 194 259 273 235 201 232 214 165 176 197 192 193 188 181 177 170 163 156 151 148 145 142 139 136 133 130 128 127 125 123 119 116 112 108 104 102 102 101 101 100 91 84 84 72 68 70 73 82 89 91 90 83 77 67 55 53 48 42 38 33 29
355 107 248 194 161 131 105 68 45 70 115 119 95 92 91 2 15 29 359 49 157 250 257 262 218 188 223 254 240 227 239 199 166 176 180 186 195 191 185 181 174 166 160 156 153 151 148 145 142 140 138 137 135 132 130 126 123 120 117 114 102 103 107 106 106 99 91 93 85 81 85 84 88 92 88 75 68 64 53 45 46 41 35 32 27 23
272 228 245 160 169 158 121 81 52 40 73 91 92 115 112 343 7 349 291 242 226 242 266 291 196 200 230 247 252 241 230 218 204 189 181 184 190 190 186 182 176 170 165 162 159 156 154 151 148 147 145 144 142 140 140 137 134 131 126 128 118 112 119 122 121 117 107 105 99 94 95 89 86 85 71 56 50 48 41 37 33 24 19 16 10 7
260 284 195 142 204 193 165 141 141 170 170 155 146 141 137 128 141 253 255 259 258 246 298 299 221 219 261 266 259 244 219 213 211 197 188 187 187 187 185 182 177 174 171 168 165 162 159 156 154 153 151 150 149 149 149 148 149 147 141 145 149 132 132 138 137 130 122 113 105 99 93 83 77 65 50 41 36 34 29 23 16 10 7 3 358 357
205 276 197 173 191 184 180 174 156 143 150 178 160 137 147 157 173 219 216 214 248 255 307 297 218 188 205 246 275 274 285 250 221 205 192 191 190 187 184 183 182 179 177 174 171 167 164 161 159 159 157 157 157 157 159 160 161 163 159 159 168 157 147 150 148 138 131 113 99 94 83 71 61 44 30 22 19 16 9 6 2 358 355 353 351 349
182 265 240 239 124 164 174 171 129 115 130 204 123 117 172 187 154 160 195 178 178 280 283 233 224 221 199 221 299 306 306 277 240 220 193 190 192 189 188 188 186 184 182 179 175 172 169 168 167 166 164 163 164 165 168 170 171 175 176 175 180 176 162 160 158 148 140 120 101 94 79 61 46 30 13 4 2 356 353 350 345 343 342 339 338 336
149 276 288 22 56 152 169 161 127 126 163 152 137 175 214 179 117 113 235 66 79 258 254 191 225 286 315 272 302 8 319 276 257 231 199 189 189 191 193 193 190 188 186 183 179 176 174 173 173 171 169 169 170 172 176 179 181 184 189 190 190 188 179 173 172 166 158 142 121 110 82 50 29 8 350 345 343 342 344 341 336 336 334 330 328 326
150 257 291 90 130 278 128 117 75 44 120 126 181 205 184 126 93 108 228 351 51 247 267 204 210 227 165 240 294 27 272 248 224 208 194 188 190 196 199 197 194 191 189 187 183 181 180 179 177 176 174 175 177 180 184 187 189 190 193 197 197 198 193 184 181 178 171 162 161 181 203 297 322 323 324 331 336 340 341 335 334 334 331 329 326 324
148 184 288 34 150 244 88 113 80 20 74 126 181 175 117 144 165 113 179 221 207 244 283 288 232 220 193 204 204 203 223 222 198 186 191 191 195 200 202 200 197 194 192 191 188 186 185 183 181 180 178 181 184 187 190 192 195 196 196 197 197 199 197 192 190 187 186 192 204 222 232 247 277 297 313 328 336 337 334 331 332 332 330 329 326 323
143 168 259 314 182 181 50 151 173 196 36 62 102 115 86 151 175 161 163 172 185 224 277 296 277 237 225 203 183 196 209 197 176 185 204 203 201 201 201 200 198 196 195 194 191 190 187 184 184 184 184 188 190 192 194 196 199 200 200 200 199 200 199 198 200 201 205 210 215 226 236 248 272 299 318 328 332 331 330 332 334 332 330 329 327 324
124 177 215 314 334 165 185 219 195 182 168 131 147 166 173 134 127 181 223 120 139 179 216 284 287 258 246 209 184 198 208 187 180 190 202 207 206 204 203 201 199 198 197 196 193 190 187 185 186 188 191 194 194 196 198 199 201 202 203 204 202 203 205 207 210 211 213 216 219 228 241 263 289 306 317 325 328 330 332 333 331 329 327 327 326 323
151 173 170 150 192 192 228 264 210 184 177 166 180 184 184 178 135 177 246 196 112 185 181 220 272 260 232 206 189 201 210 192 195 197 200 206 207 206 205 204 202 201 200 197 193 190 189 188 190 193 196 197 198 200 200 200 203 204 205 205 204 206 210 212 215 216 217 220 223 235 254 278 298 310 319 326 327 327 327 325 323 323 323 323 323 322
134 127 135 159 209 214 256 296 101 170 156 145 196 190 174 177 153 179 226 209 137 227 130 122 268 274 252 222 209 225 250 223 208 206 209 211 209 208 207 206 206 205 203 199 196 193 192 192 194 197 200 201 202 203 203 204 206 206 207 208 208 210 211 212 217 219 221 225 231 244 262 283 302 314 320 321 321 320 319 318 319 320 321 322 322 322
133 125 137 165 310 328 314 311 61 48 83 160 225 174 160 194 184 190 213 152 162 203 133 117 254 263 270 247 246 261 273 264 225 215 215 217 213 211 210 209 210 209 206 202 200 198 198 198 200 202 204 205 205 204 206 208 209 209 210 211 211 211 212 214 219 223 226 231 239 249 264 289 306 314 315 315 316 317 318 319 320 320 321 321 321 321
178 160 142 143 14 334 317 265 233 307 213 209 214 166 184 188 149 131 114 101 217 203 156 188 243 234 240 288 300 295 270 258 239 224 220 221 217 214 213 213 211 210 208 205 203 203 203 203 204 206 207 209 209 208 209 211 212 212 212 212 211 210 212 217 223 227 232 237 243 256 278 297 307 311 312 314 317 319 320 320 320 320 320 320 320 320
179 186 163 170 195 203 205 211 206 195 183 204 181 175 198 189 168 167 145 174 229 185 153 207 240 231 244 269 265 262 166 233 239 223 219 222 222 220 219 215 212 210 208 207 206 207 208 208 209 209 211 213 213 212 213 214 215 216 215 213 211 212 216 221 226 232 236 241 250 266 284 297 304 309 313 316 319 320 319 319 319 319 320 320 320 319
164 230 194 200 212 205 198 198 158 133 146 195 201 187 198 199 186 175 156 202 206 143 190 227 221 234 251 220 217 235 213 225 234 214 212 217 218 222 223 218 214 212 210 209 209 211 211 211 212 213 215 217 216 215 217 218 219 219 216 212 211 215 220 224 229 234 239 245 257 272 286 296 304 310 313 315 317 317 318 318 319 319 319 319 318 317
130 221 208 212 222 202 147 138 139 140 168 193 197 199 205 196 179 184 208 209 145 132 238 229 134 222 256 223 199 225 221 224 230 215 215 216 215 219 221 219 217 215 214 213 213 215 215 215 216 217 219 220 219 219 219 220 223 222 218 215 215 219 222 226 231 235 241 250 262 275 288 298 305 308 309 311 313 315 317 318 318 318 317 316 315 315
133 226 219 195 213 189 111 121 138 135 162 187 194 207 207 185 176 194 217 211 157 192 244 227 140 225 254 226 201 214 209 210 214 214 216 218 219 220 219 218 218 217 217 217 217 217 217 217 219 221 223 223 222 222 221 222 223 221 218 217 219 222 224 227 231 235 242 253 266 279 289 296 299 302 303 306 312 316 318 318 316 315 315 314 314 313
150 231 198 170 221 226 154 157 153 149 183 225 222 223 212 187 183 200 218 218 199 227 256 184 182 235 244 191 202 215 214 215 216 218 220 219 221 222 220 221 222 221 220 220 220 220 220 222 224 225 226 227 227 227 225 226 226 222 219 218 220 223 225 228 232 236 244 256 269 278 285 289 292 294 296 300 310 317 319 317 316 316 315 314 313 312
195 217 147 148 218 233 159 142 150 176 195 227 244 240 218 181 199 216 224 214 204 243 250 200 221 246 228 181 195 206 205 207 213 219 220 221 224 224 222 224 225 226 225 225 224 223 223 226 229 231 232 234 236 234 232 233 230 225 222 221 222 224 227 229 232 237 246 257 267 274 279 283 286 287 289 296 306 314 319 319 318 317 315 313 312 311
203 219 100 136 198 211 140 141 151 137 113 252 255 246 204 181 214 219 209 189 196 222 226 216 236 249 209 182 190 193 191 195 210 218 220 226 227 224 225 226 228 230 231 232 230 228 229 232 236 240 243 244 244 242 240 239 234 228 225 224 225 226 226 229 233 238 247 257 265 269 274 277 280 283 285 292 301 310 318 320 319 318 316 313 311 310
173 162 139 168 186 169 79 142 137 93 61 258 257 235 192 198 205 158 174 207 206 203 202 217 233 224 163 171 186 198 199 206 222 228 229 233 231 227 230 232 235 239 241 242 239 235 236 238 242 247 250 250 249 247 247 244 238 233 230 228 226 225 227 230 234 240 248 256 262 266 270 274 277 280 284 289 297 307 316 319 318 318 315 312 310 309
172 169 178 184 176 145 74 108 115 141 220 245 270 208 196 204 192 179 201 206 197 198 200 204 199 163 156 174 188 202 210 218 234 240 241 242 240 238 240 242 245 247 246 247 248 246 246 246 248 252 254 254 254 253 250 245 240 236 232 228 226 226 229 234 237 242 248 254 259 263 268 272 275 280 284 287 294 304 313 317 318 317 315 312 309 308
172 178 186 157 135 121 100 112 155 213 228 258 340 337 242 201 185 193 214 212 203 210 214 192 177 186 193 200 205 218 228 233 242 246 243 241 241 243 245 247 247 246 244 243 245 247 248 247 247 248 248 249 250 249 246 242 237 234 231 228 227 227 231 236 240 245 250 253 257 263 267 271 276 280 283 285 291 302 310 315 316 316 314 311 308 307
170 171 148 117 133 107 123 177 206 248 281 321 328 321 25 87 126 163 240 245 220 207 205 208 219 227 228 228 228 234 243 248 255 253 244 237 238 239 239 239 240 239 240 240 239 240 240 240 241 242 242 244 244 244 246 241 233 231 230 228 227 228 233 239 244 248 250 252 257 263 268 273 277 280 281 283 290 300 308 313 315 314 312 309 306 305
170 168 153 180 184 144 166 210 246 328 303 255 252 238 170 147 149 156 221 253 226 180 175 188 221 238 238 237 231 223 228 273 287 270 255 243 238 235 232 232 232 230 231 229 226 226 226 228 232 234 236 239 239 241 243 238 230 229 230 229 228 230 235 242 247 250 252 253 258 264 269 274 277 278 279 282 290 299 307 312 313 313 311 308 305 304
184 186 184 200 202 141 161 226 262 282 261 234 200 201 178 164 156 136 149 281 259 176 177 180 206 230 225 188 160 162 142 33 300 270 255 239 229 223 221 223 218 214 216 214 215 219 221 226 232 234 234 233 232 233 233 231 228 228 230 230 230 234 240 245 250 253 253 254 259 266 271 274 275 276 278 283 290 299 306 310 311 311 309 306 303 303
64 23 187 200 200 153 182 221 215 225 249 227 198 222 160 145 131 98 69 289 253 187 185 183 198 223 219 175 157 147 124 140 254 260 250 222 212 204 199 200 199 202 210 214 222 229 232 236 238 237 234 230 226 224 224 225 227 229 232 233 236 241 246 251 255 256 255 256 262 268 272 274 274 275 278 283 290 298 304 308 310 309 307 304 302 303
104 73 192 208 207 192 202 222 224 237 254 212 199 201 161 145 125 92 337 274 235 190 187 184 199 219 213 181 165 154 163 198 234 269 240 195 188 183 182 189 196 207 220 230 240 245 245 246 243 240 237 232 226 222 221 224 227 230 234 239 242 247 252 256 259 257 255 259 266 271 273 273 273 275 278 283 290 298 303 306 308 308 306 302 301 303
145 155 190 210 217 214 214 223 258 265 235 211 192 169 151 132 109 124 240 223 181 182 185 188 205 214 197 176 173 183 213 220 225 238 171 177 187 186 187 199 213 233 249 252 255 257 256 255 251 246 242 237 230 225 222 222 226 230 237 242 246 249 253 256 257 255 257 264 269 271 272 272 273 274 278 283 290 296 300 304 307 307 304 301 301 302
161 140 183 210 212 218 224 228 274 274 192 157 159 163 151 130 150 219 181 155 160 175 184 188 199 202 188 184 191 204 225 232 231 218 183 185 198 200 202 219 236 250 258 257 258 264 265 262 257 249 243 238 232 227 222 222 227 233 238 242 246 249 251 252 253 254 259 264 267 269 270 271 272 274 277 282 289 294 299 303 306 305 303 301 301 302
166 151 186 210 182 158 234 210 226 275 173 146 137 139 176 183 189 164 147 150 168 178 178 180 185 189 190 197 208 218 226 230 230 224 209 205 209 213 224 245 260 264 265 261 261 266 267 266 261 253 247 240 232 225 221 224 231 235 239 246 251 250 248 248 250 253 257 262 265 267 269 270 271 273 277 282 288 293 297 301 304 303 301 300 301 303
183 166 187 217 184 155 195 210 213 303 168 161 153 159 205 194 158 136 144 163 179 177 175 178 184 192 198 207 219 225 227 227 225 223 219 219 223 228 237 250 260 262 262 260 260 262 262 263 261 255 249 242 233 226 226 230 235 238 242 251 254 250 247 246 247 251 256 260 264 266 268 269 271 273 276 282 288 292 296 299 302 302 301 300 301 302
208 173 175 201 195 170 182 209 208 90 169 176 176 181 196 195 186 156 160 177 183 181 182 186 194 202 209 219 226 229 232 232 226 223 223 227 233 236 240 245 249 253 257 256 254 254 254 256 257 252 248 244 237 232 233 235 238 241 246 251 252 249 248 246 247 250 255 260 263 266 268 270 271 273 277 282 288 292 295 299 302 301 300 300 300 300
231 121 134 114 246 244 244 155 154 124 177 187 191 193 195 203 208 200 194 195 194 194 196 201 209 215 220 228 234 235 237 234 226 224 226 230 235 239 242 246 250 255 258 254 252 253 253 253 252 248 246 245 242 240 240 241 243 246 250 251 251 250 249 246 246 250 254 258 263 266 268 271 272 274 278 282 288 292 294 298 300 300 298 298 298 297
259 156 150 96 242 250 299 138 149 143 189 192 196 202 205 210 215 214 214 216 214 213 215 219 224 228 230 236 241 244 244 237 230 228 227 230 239 245 250 255 258 260 259 256 254 256 255 254 252 250 248 247 246 246 247 247 249 250 252 252 252 252 250 246 246 249 252 257 262 265 268 271 273 275 278 283 287 291 293 295 298 297 297 297 296 296
203 160 172 234 221 196 214 217 193 131 199 198 203 209 210 210 215 218 221 225 227 229 230 232 234 238 243 250 254 254 251 242 235 233 232 237 249 256 258 262 266 266 263 259 257 254 253 254 254 254 253 251 250 251 252 253 254 255 254 254 254 253 251 247 246 248 252 256 261 265 269 272 273 275 278 282 286 289 291 293 295 295 295 295 294 294
141 158 179 184 162 138 14 231 176 19 292 219 211 212 213 216 221 224 228 232 235 237 239 242 245 248 253 261 265 264 258 250 242 238 238 246 256 261 264 270 272 269 265 263 261 258 255 254 254 254 255 255 254 255 255 256 257 257 257 257 257 255 253 250 247 247 250 255 260 265 269 271 272 275 278 282 286 288 289 291 293 293 293 293 292 292
142 176 178 117 157 231 214 186 178 156 272 228 216 215 220 225 229 231 236 239 241 243 247 250 254 258 262 267 269 267 263 261 256 249 248 255 263 269 275 277 273 269 267 265 263 261 257 255 253 253 253 254 254 255 256 256 257 257 258 258 257 256 255 252 249 247 249 254 260 265 269 270 273 276 280 283 286 287 288 289 290 290 290 290 289 288
185 202 188 158 192 219 190 188 192 196 224 234 228 228 233 235 236 238 242 247 250 252 256 257 260 264 267 270 271 269 266 267 266 261 260 265 270 275 278 275 270 269 268 266 263 261 258 256 253 251 252 254 256 258 260 262 262 261 259 258 257 257 255 253 250 247 248 253 261 265 268 270 273 277 281 283 284 285 286 287 287 287 288 289 288 287